Weather observations for the past three days for
Albany International Airport
Imperial (Metric)
Date Time (edt) Wind (mph) Vis. (mi.) Weather Sky Cond. Temperature (ºF) Relative Humidity Wind Chill (°F) Heat Index (°F) Pressure Precipitation (in)
Air Dwpt 6 hour altimeter (in) sea level (mb) 1 hr 3 hr 6 hr
Max. Min.
19 10:51 SE 7 10.00 Mostly Cloudy FEW065 FEW230 BKN250 86 71.1 61% 92 30.29 1025.6
19 09:51 SE 7 10.00 Mostly Cloudy FEW060 BKN250 82.9 70 65% 87 30.31 1026.3
19 08:51 S 10 10.00 Mostly Cloudy FEW055 FEW230 BKN250 79 68 69% 81 30.31 1026.2
19 07:51 S 9 10.00 Mostly Cloudy FEW230 BKN260 78.1 66.9 79 75.9 69% 80 30.31 1026.0
19 06:51 S 8 10.00 Mostly Cloudy SCT230 BKN280 75.9 66 72% 77 30.29 1025.6
19 05:51 S 8 10.00 Mostly Cloudy SCT200 BKN250 75.9 64.9 69% 78 30.28 1025.0
19 04:51 S 9 10.00 Mostly Cloudy FEW200 BKN250 75.9 66 72% 77 30.26 1024.5
19 03:51 SE 7 10.00 Partly Cloudy SCT250 77 66.9 71% 79 30.25 1023.9
19 02:51 S 8 10.00 Partly Cloudy SCT250 78.1 66.9 69% 80 30.24 1023.8
19 01:51 SE 8 10.00 Partly Cloudy SCT250 79 69.1 90 79 72% 82 30.23 1023.5
19 00:51 SE 10 10.00 Partly Cloudy SCT250 81 70 69% 84 30.22 1023.1
18 23:51 S 10 G 20 10.00 Partly Cloudy SCT250 82 71.1 69% 86 30.22 1023.0
18 22:51 S 12 10.00 Partly Cloudy SCT250 84 71.1 65% 89 30.21 1022.6
18 21:51 S 10 10.00 Partly Cloudy FEW060 SCT250 87.1 71.1 59% 93 30.19 1022.1
18 20:51 S 8 10.00 Mostly Cloudy FEW060 BKN250 88 70 55% 93 30.17 1021.4
18 19:51 S 8 10.00 Partly Cloudy FEW055 SCT250 90 70 93.9 90 52% 95 30.17 1021.3
18 18:51 S 9 10.00 Mostly Cloudy FEW055 BKN250 91 70 50% 97 30.16 1021.0
18 17:51 S 10 10.00 Mostly Cloudy FEW055 BKN250 93 69.1 46% 98 30.15 1020.8
18 16:51 S 12 10.00 Mostly Cloudy FEW055 BKN250 93.9 69.1 44% 99 30.16 1021.0
18 15:51 SE 5 10.00 Mostly Cloudy FEW055 FEW200 BKN250 93.9 70 46% 100 30.16 1021.1
18 14:51 S 5 10.00 Mostly Cloudy FEW050 FEW200 BKN250 91.9 69.1 47% 97 30.18 1021.6
18 13:51 SW 6 10.00 Partly Cloudy FEW050 FEW180 SCT250 91.9 70 93 75.9 49% 98 30.17 1021.5
18 12:51 SE 7 10.00 A Few Clouds FEW045 FEW180 FEW250 90 69.1 50% 95 30.19 1022.2
18 11:51 Vrbl 3 10.00 A Few Clouds FEW042 FEW160 FEW250 89.1 69.1 52% 94 30.21 1022.8
18 10:51 SE 6 10.00 A Few Clouds FEW160 FEW250 84.9 69.1 59% 89 30.22 1023.1
18 09:51 S 6 10.00 A Few Clouds FEW160 FEW250 82 69.1 65% 85 30.22 1023.1
18 08:51 S 6 10.00 Partly Cloudy SCT180 SCT250 78.1 68 71% 80 30.21 1022.8
18 07:51 S 8 10.00 Mostly Cloudy FEW150 SCT200 BKN250 75.9 66.9 75.9 70 74% 77 30.2 1022.5
18 06:51 S 5 10.00 Mostly Cloudy FEW150 SCT200 BKN250 73.9 66 76% 30.19 1022.1
18 05:51 S 3 10.00 Partly Cloudy SCT250 72 64.9 79% 30.17 1021.5
18 04:51 S 3 10.00 Partly Cloudy SCT250 71.1 64 79% 30.15 1020.8
18 03:51 S 5 10.00 Mostly Cloudy SCT200 BKN250 73.9 64 71% 30.13 1020.0
18 02:51 SE 5 10.00 Partly Cloudy SCT200 73.9 64 71% 30.12 1019.6
18 01:51 SE 9 10.00 A Few Clouds FEW200 75.9 64 86 75.9 67% 78 30.11 1019.4
18 00:51 SE 9 10.00 A Few Clouds FEW200 77 64 64% 79 30.12 1019.7
17 23:51 S 9 10.00 A Few Clouds FEW250 78.1 64.9 64% 80 30.12 1019.7
17 22:51 S 9 10.00 Partly Cloudy FEW075 SCT250 80.1 64.9 60% 82 30.11 1019.4
17 21:51 S 10 G 21 10.00 Mostly Cloudy BKN075 82.9 66.9 59% 86 30.1 1019.3
17 20:51 S 9 10.00 Mostly Cloudy SCT075 SCT180 BKN250 84 66 55% 86 30.07 1018.2
17 19:51 S 9 10.00 Mostly Cloudy FEW080 BKN250 86 66 88 81 51% 88 30.06 1017.7
17 18:51 SE 7 10.00 Partly Cloudy FEW080 SCT250 87.1 66 50% 89 30.05 1017.4
17 17:51 SE 9 10.00 Partly Cloudy FEW080 SCT250 88 66 48% 90 30.04 1017.1
17 16:51 SE 12 10.00 Partly Cloudy FEW080 SCT250 88 66 48% 90 30.04 1017.1
17 15:51 S 15 G 21 10.00 Mostly Cloudy FEW060 FEW150 BKN250 87.1 66 50% 89 30.06 1017.6
17 14:51 E 9 10.00 Partly Cloudy FEW060 SCT150 SCT250 86 66 51% 88 30.08 1018.4
17 13:51 S 9 10.00 Mostly Cloudy FEW060 FEW120 BKN150 BKN250 81 64 81 66.9 57% 83 30.09 1018.7
17 12:51 S 10 10.00 Mostly Cloudy FEW070 BKN180 BKN250 80.1 63 56% 81 30.1 1019.3
17 11:51 S 10 G 21 10.00 Partly Cloudy FEW075 SCT180 SCT250 79 63 58% 81 30.1 1019.0
17 10:51 SE 10 10.00 A Few Clouds FEW075 FEW250 75.9 62.1 62% 78 30.12 1019.8
17 09:51 SE 8 10.00 A Few Clouds FEW075 FEW250 73 61 66% 30.15 1020.9
17 08:51 S 10 10.00 A Few Clouds FEW070 FEW250 68 57.9 70% 30.17 1021.5
17 07:51 S 12 10.00 Partly Cloudy FEW060 SCT250 66 57 66 63 73% 30.17 1021.6
17 06:51 S 9 10.00 Partly Cloudy FEW060 SCT250 64 55 73% 30.16 1021.2
17 05:51 SE 8 10.00 Mostly Cloudy BKN250 63 54 73% 30.16 1021.2
17 04:51 S 8 10.00 Mostly Cloudy BKN250 63 55 76% 30.16 1021.1
17 03:51 S 8 10.00 Mostly Cloudy BKN250 64 55 73% 30.16 1021.2
17 02:51 S 9 G 20 10.00 Partly Cloudy SCT250 64 55 73% 30.16 1021.1
17 01:51 S 9 G 20 10.00 Partly Cloudy SCT250 64.9 54 73.9 63 68% 30.16 1021.3
17 00:51 S 12 10.00 Mostly Cloudy BKN250 66 53.1 63% 30.16 1021.1
16 23:51 S 13 G 22 10.00 Mostly Cloudy BKN250 66.9 52 59% 30.15 1020.8
16 22:51 S 9 10.00 Mostly Cloudy BKN250 68 50 53% 30.16 1021.0
16 21:51 Calm 10.00 Mostly Cloudy FEW170 BKN250 68 50 53% 30.17 1021.4
16 20:51 N 5 10.00 Mostly Cloudy BKN170 BKN250 72 46.9 41% 30.16 1021.2
16 19:51 E 5 10.00 Mostly Cloudy FEW200 BKN250 73.9 44.1 77 73 34% 30.16 1021.1
16 18:51 E 7 10.00 Mostly Cloudy FEW200 BKN250 75.9 42.1 30% 77 30.16 1021.3
16 17:51 E 8 10.00 Mostly Cloudy SCT200 BKN250 75 43 32% 77 30.16 1021.2
16 16:51 E 6 10.00 Mostly Cloudy SCT200 BKN250 75.9 43 31% 77 30.18 1021.8
16 15:51 Vrbl 5 10.00 Mostly Cloudy FEW200 BKN250 75 42.1 31% 77 30.19 1022.4
16 14:51 S 7 10.00 Mostly Cloudy FEW200 BKN250 73.9 42.1 32% 30.21 1023.1
16 13:51 Vrbl 3 10.00 Mostly Cloudy FEW180 BKN250 73.9 43 73.9 59 33% 30.23 1023.6
16 12:51 Vrbl 3 10.00 Partly Cloudy FEW180 SCT250 72 44.1 37% 30.24 1024.0
16 11:51 Vrbl 5 10.00 Partly Cloudy FEW180 FEW200 SCT250 70 43 38% 30.26 1024.7
Date Time (edt) Wind (mph) Vis. (mi.) Weather Sky Cond. Air Dwpt Max. Min. Relative Humidity Wind Chill (°F) Heat Index (°F) altimeter (in) sea level (mb) 1 hr 3 hr 6 hr
6 hour
Temperature (ºF) Pressure Precipitation (in)